EDT,Max TemperatureF,Mean TemperatureF,Min TemperatureF,Max Dew PointF,MeanDew PointF,Min DewpointF,Max Humidity, Mean Humidity, Min Humidity, Max Sea Level PressureIn, Mean Sea Level PressureIn, Min Sea Level PressureIn, Max VisibilityMiles, Mean VisibilityMiles, Min VisibilityMiles, Max Wind SpeedMPH, Mean Wind SpeedMPH, Max Gust SpeedMPH,PrecipitationIn, CloudCover, Events, WindDirDegrees
2012-9-1,81,65,49,59,52,44,93,64,26,30.16,30.12,30.07,10,10,7,8,2,,0.00,0,,112
2012-9-2,84,70,56,59,56,53,94,62,35,30.10,30.04,29.98,10,10,7,14,3,21,0.00,0,,104
2012-9-3,87,70,54,66,59,52,94,67,35,30.01,29.96,29.90,10,10,10,10,2,,0.00,0,,179
2012-9-4,86,76,66,69,64,59,93,74,41,29.93,29.89,29.84,10,9,5,8,2,,0.00,4,Rain,193
2012-9-5,85,73,60,68,63,56,95,74,39,29.88,29.82,29.75,10,9,2,17,3,26,0.00,3,,232
2012-9-6,83,68,52,61,53,48,96,67,29,29.94,29.89,29.83,10,8,0,12,3,,0.00,3,Fog,290
2012-9-7,70,60,49,58,52,47,93,81,44,29.94,29.86,29.77,10,10,4,21,3,28,0.00,4,Rain,332
2012-9-8,67,58,49,56,50,44,95,77,45,29.84,29.78,29.74,10,10,5,22,8,32,0.00,5,Rain,303
2012-9-9,71,60,48,52,45,34,94,65,26,30.13,29.99,29.84,10,10,10,14,4,21,0.00,5,,346
2012-9-10,73,56,40,51,45,39,95,69,34,30.22,30.16,30.11,10,10,10,16,2,21,0.00,1,,225
2012-9-11,79,62,44,55,50,43,95,66,33,30.15,30.11,30.07,10,9,2,18,4,25,0.00,0,,212
2012-9-12,85,70,55,58,53,47,89,60,29,30.15,30.12,30.09,10,10,10,16,7,24,0.00,0,,205
2012-9-13,72,63,54,57,51,48,94,75,43,30.30,30.21,30.14,10,10,5,15,5,22,0.00,5,Rain,333
2012-9-14,73,58,43,53,42,30,97,65,21,30.30,30.27,30.23,10,8,0,22,4,28,0.00,3,Fog,304
2012-9-15,73,56,38,50,42,37,95,68,29,30.34,30.25,30.13,10,10,10,10,2,21,0.00,1,,227
2012-9-16,77,60,44,54,44,37,93,63,25,30.13,30.05,29.98,10,10,3,14,3,24,0.00,0,,239
2012-9-17,76,60,44,58,51,43,94,73,45,29.98,29.84,29.70,10,10,4,18,4,25,0.00,3,Rain,233
2012-9-18,59,50,40,54,43,30,93,73,36,29.94,29.79,29.71,10,10,5,20,10,34,0.00,6,Rain,328
2012-9-19,65,50,34,44,37,32,97,62,31,30.04,29.95,29.82,10,9,0,17,6,32,0.00,5,Fog-Rain,188
2012-9-20,67,56,44,50,43,33,95,66,30,29.87,29.82,29.77,10,10,0,18,8,30,0.00,4,Fog-Rain,244
2012-9-21,65,52,38,50,44,34,96,80,31,29.88,29.83,29.73,10,10,5,22,3,30,0.00,4,Rain,212
2012-9-22,57,50,42,49,43,33,95,78,45,30.06,29.86,29.69,10,10,2,18,5,32,0.00,5,Rain,307
2012-9-23,52,43,34,41,38,33,97,78,55,30.19,30.14,30.06,10,9,1,20,4,28,0.00,4,Rain,289
2012-9-24,62,47,32,40,34,30,96,63,29,30.16,30.00,29.82,10,10,7,22,5,31,0.00,1,,213
2012-9-25,75,60,44,50,46,41,92,61,29,29.87,29.83,29.78,10,10,10,16,7,24,0.00,1,,227
2012-9-26,66,54,41,48,41,33,95,63,30,30.18,30.02,29.89,10,10,1,14,4,18,0.00,2,,352
2012-9-27,64,54,44,46,40,38,84,62,38,30.28,30.21,30.17,10,10,10,9,2,,0.00,7,,44
2012-9-28,68,54,41,43,39,32,94,63,27,30.19,30.15,30.09,10,10,5,10,3,18,0.00,2,,339
2012-9-29,72,54,37,49,38,28,93,62,21,30.10,30.03,29.96,10,10,7,13,3,23,0.00,0,,344
2012-9-30,65,51,37,46,37,32,96,67,29,30.02,29.98,29.94,10,10,2,9,2,18,0.00,0,,34